Back to catalog

DELTA 1 DEB

AliveSSO
NORAD 13566·DEBRIS·🇺🇸 United States

Launched Mar 5, 1978 from Vandenberg Space Force Base

Loading…

Next Passes (next 24 hours)

TLE

FreshSource: Space-Track

Epoch: Sep 14, 2026, 01:11 UTC

1 13566U 78026FD  26257.04962250  .00000625  00000-0  22468-3 0  9992
2 13566  98.6596 296.3275 0033918 135.4673 254.7926 14.36976956298373

Track DELTA 1 DEB in real time with AllMySat

Download on the App Store